WESTFORD NEEDLES, 702

Orbit data source: Space-Track

WESTFORD NEEDLES, 702 is space debris in LEO originally from a launch on Thu, 09 May 1963 UTC launched from the Air Force Western Test Range (AFWTR). Debris objects in space refer to the collection of defunct objects orbiting the Earth. Examples of debris include non-operational satellites, rocket bodies, and fragments generated from explosions, collisions, or faulty payload assembly.

Loading next visibility...
WESTFORD NEEDLES details
Identifier
702, 1963-014H
Orbit
LEO
Last TLE update6 hours ago
Origin
Flag of USUSAF SSD (US)
ManufacturerUnknown
MissionSpacecraft
Bus & MotorUnknown
MassUnknown
Launch date (UTC)
1963-05-09 (62 years ago)
Launch vehicleUnknown
Launch site
Air Force Western Test Range (AFWTR)
Object type
Payload
Rocket body
Debris
Shape & HBRUnknown
Radar Cross SectionMedium (>0.1 m² and <1 m²)

Expand to show TLE details & history

TLE from 6 hours ago
0 WESTFORD NEEDLES
1   702U 63014H   25036.50890809 -.00000004  00000-0 -32770-2 0  9995
2   702  87.3207 236.8893 0153657 181.8278 178.2028  8.65668532951315
Epoch: 2025-02-05T12:12Z
Definitive object data (Epoch: 2025-02-05T12:12:49.658Z)
Latitude-0.00011°
Longitude-82.21644°
Altitude3,797.17 km
Speed6.211 km/s
True Right ascension15h 47m 33s
True Declination0° 00' 00"
Sunlit
Object was in daylight at TLE epoch
Visualization TLE readout
Latitude31.42725°
Longitude-80.60732°
Altitude3,777.538 km
Speed6.226 km/s
Apparent Right ascension13h 37m 29s
Apparent Declination8° 49' 56"
Sunlit
Object is in daylight
Visualization observer readout
Local Sidereal Time20:04:37
Azimuth281.108° WNW
Elevation0.516°
Doppler factor1
Orbital elements
Apogee altitude3,792.828 km
Perigee altitude3,484.99 km
Semi-major axis10,017.046 km
Eccentricity0.0153657
Inclination87.3207°
RAAN236.8893°
Arg. of periapsis181.8278°
True anomaly178.25698°
Mean anomaly178.2028°
Eccentric anomaly178.22999°
Mean motion2.16488 °/min
BSTAR-0.003277
Orbital period166.29 mins
Loading maneuver chart data...

WESTFORD NEEDLES Visibility forecast

Observer location: undefined°, undefined

Span
Click to sort rows by Start time (UTC) header in descending order
Start Az.
Max El. time (UTC)
Max El. Az.
Max El.
End time (UTC)
End Az.
35 mins2025-02-06 00:05:32.904Z2.777° NNE2025-02-06 00:23:32.904Z83.237° E39.328°2025-02-06 00:40:32.904Z155.783° SSE
31 mins2025-02-06 02:53:32.904Z349.183° N2025-02-06 03:08:32.904Z288.449° WNW34.841°2025-02-06 03:24:32.904Z222.961° SW
21 mins2025-02-06 10:37:32.904Z91.65° ESE2025-02-06 10:47:32.904Z57.803° ENE18.836°2025-02-06 10:58:32.904Z20.131° NNE
37 mins2025-02-06 13:11:32.904Z168.277° S2025-02-06 13:29:32.904Z83.762° E44.563°2025-02-06 13:48:32.904Z3.505° NNE
30 mins2025-02-06 16:03:32.904Z240.305° WSW2025-02-06 16:18:32.904Z294.457° NW25.907°2025-02-06 16:33:32.904Z349.832° N
|